sat.trackr.live / text

‹ back to catalog

STARLINK-11583 [DTC]

NORAD 62991 · 2025-031L

PAYLOAD ACTIVE UNKNOWN

§ Identity

Operator
Country
US
Launch date
2025-02-11
Launch site
AFETR
Launch vehicle
Mass (kg)
RCS (m²)

Purposes: comms

External: N2YO · Heavens-Above · Gunter

§ Orbital elements

Epoch: 2026-05-25T00:22:13.724832Z

Period
91.67 min
Inclination
42.9969°
Eccentricity
0.0003388
Mean motion
15.70907333 rev/d
Perigee alt
354.0 km
Apogee alt
358.6 km
Semi-major
6,734.4 km
B*
1.2883e-3
RAAN
261.6416°
Arg perigee
282.0407°
Mean anomaly
78.0081°
Rev number
7,475

§ Raw data

STARLINK-11583 [DTC]1 62991U 25031L   26145.01543663  .00168761  00000+0  12883-2 0  99962 62991  42.9969 261.6416 0003388 282.0407  78.0081 15.70907333 74754

JSON: /api/v1/satellites/62991 · /tle

For live sub-satellite position, see the globe view (requires WebGL).

§ Visibility from observer

Set your observer location to see the next 7 days of passes ≥ 10°. The values pass through the URL so the page stays shareable.

No JS? Fill the form by hand. The geolocation button needs JavaScript.